RADIO ROSTO (RS-15) (23439 NORAD) Tracking and Keplerian Element Data

This shows tracking and keplerian element data for the satellite.

Feedback or suggestion? Click here.




ElementValue
Catalog23439
NameRADIO ROSTO (RS-15)
Epoch Orbit14913
Epoch Day324.93493184
Epoch Year2022
RAAN252.516
Inclination64.8141
Eccentricity0.0167366
Argument of Perigee245.9887
Mean Anonmoly112.3438
Mean Motion11.27573315
Decay Rate-3.9E-07
L11 23439U 94085A 22324.93493184 -.00000039 00000+0 10000-3 0 9997
L22 23439 64.8141 252.5160 0167366 245.9887 112.3438 11.27573315149135



Live tracking and technical data element details for RADIO ROSTO (RS-15) (NORAD 23439). RADIO ROSTO (RS-15) can be tracked NOW for your location showing map with azimuth and elevation plus other details from your city location.







IsCatalogInMostPopularTable: catalog: 23439, numindb: 562
Update: records affected: 1



GetName: 23439 RADIO ROSTO (RS-15)

Hit Count: updated at: Mon, 28 Nov 2022 04:28:29 GMT